Find OV2-5

NORAD ID: 3428 Int'l Des: 1968-081 Owner: SAMSO Country: US operational
MEOCIRCULAR

リアルタイム位置

3D地球を読み込み中...

OV2-5について

説明を読み込み中...

次回通過

Passes for default location (London). Set your location on the main map for personalized predictions.

高度履歴

Loading altitude history...

軌道要素

1 3428U 68081A 26104.73734301 -.00000043 00000-0 00000+0 0 9998
2 3428 1.8750 48.9043 0080852 284.2935 175.6947 1.01559746120419
Epoch: Apr 14, 2026 • Age: 6 hours

現在のステータス

高度 35408.4 km
速度 3.09 km/s
衛星直下点 -0.56°S, 40.85°E
タイプ other

Most Searched